Location: Elende
(51.4317°N, 10.6316°E)
Time: 06:39:13
(UTC+00:00)

ARIANE 5 R/B - Pass Details

Date: 18 September 2020
Orbit: 620 x 657 km, 98.2° (Epoch: 09 October)

Event Time Altitude Azimuth Distance (km) Brightness Sun altitude
Exits shadow 19:37:43 48° 86° (E) 817 2.8 -20.6°
Maximum altitude 19:38:03 50° 69° (ENE) 804 2.8 -20.6°
Drops below altitude 10° 19:42:15 10° 355° (N) 2,003 5.6 -21.2°
Sets 19:44:29 0° 350° (N) 2,913 6.6 -21.5°
